Hourly Data Report for October 02, 2019

All times are specified in Local Standard Time (LST). Add 1 hour to adjust for Daylight Saving Time where and when it is observed.

WOODSTOCK NEWBRIDGE
NEW BRUNSWICK
Current Station Operator: ECCC - MSC

46°09'08.000" N
67°32'34.000" W
154.00 m
8105603
71606
EWD

Download Data

Hourly Data (October 2019)
Hourly Data Report for October 2, 2019
TIME Temp Definition
°C
Dew Point Definition
°C
Rel Hum Definition
%
Wind Dir Definition
10's deg

Wind Spd Definition
km/h
Visibility Definition
km
Stn Press Definition
kPa
Hmdx Definition


Wind Chill Definition


Weather Definition


00:00 13.1 12.7 98 21 10   98.63     LegendNANA
01:00 13.0 12.8 98 23 6   98.59     LegendNANA
02:00 13.0 12.7 98 26 5   98.59     LegendNANA
03:00 12.9 12.5 98 30 7   98.56     LegendNANA
04:00 12.0 11.1 94 29 11   98.64     LegendNANA
05:00 10.3 8.3 88 31 14   98.71     LegendNANA
06:00 8.7 7.2 90 29 14   98.81     LegendNANA
07:00 8.1 6.0 87 31 11   98.94     LegendNANA
08:00 7.1 4.8 86 30 11   99.08     LegendNANA
09:00 6.4 3.8 84 31 11   99.15     LegendNANA
10:00 6.3 3.3 82 31 9   99.20     LegendNANA
11:00 6.9 3.0 77 31 14   99.22     LegendNANA
12:00 7.3 3.2 75 32 9   99.26     LegendNANA
13:00 7.9 3.1 72 32 8   99.29     LegendNANA
14:00 8.1 2.7 69 32 11   99.32     LegendNANA
15:00 7.6 2.9 72 33 11   99.39     LegendNANA
16:00 8.0 3.9 76 30 11   99.45     LegendNANA
17:00 7.6 2.6 71 30 9   99.53     LegendNANA
18:00 6.7 2.5 75 32 8   99.64     LegendNANA
19:00 6.4 1.8 72 31 8   99.71     LegendNANA
20:00 5.5 1.2 73 31 6   99.82     LegendNANA
21:00 5.3 0.9 73 32 9   99.89     LegendNANA
22:00 4.9 0.3 72 31 9   99.96     LegendNANA
23:00 3.6 -1.0 72 30 6   99.98     LegendNANA

Notes on Data Quality.

Legend

  • E = Estimated
  • M = Missing
  • NA = Not Available
Date modified: